User: anonymous
Location: Fort Wayne
(41.1310°N, 85.1290°W)
Time: 18:06:26
(UTC-04:00)
Language:

COSMOS 2406 - Orbit

View from above orbital plane
View from above orbital plane
View from above satellite
View from above satellite

Ground track
Ground track

The orbit data is extracted from the following two-line orbital elements,

1 28352U 04021A   14112.27761093  .00000396  00000-0  24496-3 0  2776
2 28352 071.0062 009.2564 0013462 029.9738 108.6728 14.11338256508311
Epoch (UTC): 22 April 2014 06:39:45
Eccentricity: 0.0013462
inclination: 71.0062°
perigee height: 845 km
apogee height: 864 km
right ascension of ascending node: 9.2564°
argument of perigee: 29.9738°
revolutions per day: 14.11338256
mean anomaly at epoch: 108.6728°
orbit number at epoch: 50831

The dashed part of the orbit path shows where the satellite is in the earth's shadow,  

DLR